Location: Gravenhurst
(44.9196°N, 79.3742°W)
Time: 03:07:23
(UTC-04:00)

Envisat - Visible Passes

Search period start: 21 October 2019 00:00
Search period end: 31 October 2019 00:00
Orbit: 764 x 766 km, 98.1° (Epoch: 21 October)

Date Brightness Start Highest point End Pass type
(mag) Time Alt. Az. Time Alt. Az. Time Alt. Az.
21 Oct 6.7 06:42:59 10° E 06:43:25 10° E 06:43:51 10° E visible
21 Oct 3.5 19:34:32 10° S 19:39:34 64° WSW 19:44:38 10° NNW visible
22 Oct 3.0 18:57:50 10° SSE 19:02:49 61° ENE 19:07:50 10° N visible
22 Oct 5.8 20:38:53 10° SW 20:42:16 18° W 20:45:39 10° NW visible
23 Oct 6.1 07:05:48 10° NE 07:09:16 18° E 07:12:43 10° SE visible
23 Oct 4.5 20:00:29 10° SSW 20:05:10 37° W 20:09:53 10° NNW visible
24 Oct 3.1 19:23:12 10° S 19:28:17 80° WSW 19:33:24 10° NNW visible
25 Oct 3.2 18:46:44 10° SE 18:51:35 49° ENE 18:56:30 10° N visible
25 Oct 5.4 20:26:58 10° SW 20:30:52 22° W 20:34:48 10° NW visible
26 Oct 6.2 06:55:07 10° NE 06:57:52 14° E 07:00:36 10° ESE visible
26 Oct 4.1 19:48:59 10° S 19:53:51 47° W 19:58:45 10° NNW visible
27 Oct 2.9 19:11:57 10° SSE 19:17:01 82° ENE 19:22:08 10° NNW visible
27 Oct 6.1 20:54:27 10° WSW 20:56:41 13° W 20:58:56 10° WNW visible
28 Oct 3.5 18:35:42 10° SE 18:40:23 39° ENE 18:45:06 10° N visible
28 Oct 5.1 20:15:13 10° SSW 20:19:31 27° W 20:23:50 10° NW visible
29 Oct 6.5 06:44:54 10° ENE 06:46:27 11° E 06:48:00 10° ESE visible
29 Oct 3.6 19:37:33 10° S 19:42:33 59° W 19:47:34 10° NNW visible
30 Oct 3.0 19:00:45 10° SSE 19:05:46 66° ENE 19:10:50 10° N visible
30 Oct 5.9 20:42:09 10° SW 20:45:17 16° W 20:48:25 10° NW visible
